FREGAT DEB

Last updated on Fri Feb 07 2025 00:02:09 GMT+0000 (Coordinated Universal Time)

1 49271U 11037PF 25036.65178605 .00014524 00000+0 29844-1 0 9992 2 49271 51.6521 32.0505 0934418 266.0835 83.2840 12.27193595163749
UTC large
Height (km)
Speed (km/s)
/
Latitude / Longitude
Inclination (degrees)
Orbital Period (minutes)
Azimuth
Elevation
Range (km)
Doppler Factor

Next 0 passes for location: London (51.5072 / 0.1276)

Sorry there are no passes over London.